Location: Boiro
(42.6475°N, 8.8834°W)
Time: 11:07:15
(UTC+01:00)

Vanguard 2 Rocket - Pass Details

Date: 17 December 2021
Orbit: 554 x 3325 km, 32.9° (Epoch: 19 January)

Event Time Altitude Azimuth Distance (km) Brightness Sun altitude
Rises 21:13:28 0° 249° (WSW) 3,195 10.7 -33.9°
Reaches altitude 10° 21:18:28 10° 207° (SSW) 2,769 9.6 -34.9°
Maximum altitude 21:19:23 10° 199° (SSW) 2,848 9.6 -35.0°
Drops below altitude 10° 21:20:22 10° 191° (S) 2,981 9.6 -35.2°
Enters shadow 21:22:48 - 175° (S) 3,468 9.8 -35.7°
